Temperature
23 22 22 22 24 26 28 30 30 29 29 29 28 27 26 25 24 22 21 20 20 19 19 19 19 19 18 19 18 18 19 19 19 19 19 19 19 19 19 19 19 19 19 18 18 18 18 18 19
22 22 22 24 26 27 29 30 29 29 29 29 28 27 26 24 23 21 20 20 20 19 19 19 19 19 18 19 18 18 19 19 19 19 19 19 19 19 19 19 18 18 18 18 18 18 18 18 18
22 23 24 27 29 29 29 30 30 30 29 29 28 26 25 24 22 21 20 20 20 19 19 19 19 19 18 18 18 18 18 18 18 18 18 18 18 18 19 18 18 18 18 18 18 18 18 18 18
22 24 26 29 30 31 31 31 31 30 29 29 27 26 24 23 22 21 20 20 19 19 19 19 19 19 18 18 18 18 18 18 18 18 18 18 18 18 18 18 18 18 18 18 18 18 18 18 18
24 26 28 30 31 31 32 31 31 30 30 28 26 25 23 22 22 21 21 20 19 19 19 19 19 19 19 18 18 18 18 18 18 18 18 18 18 18 18 18 18 18 18 18 18 18 18 18 18
27 29 29 30 31 32 32 32 31 31 29 28 26 24 22 22 22 21 21 20 20 19 19 19 19 19 19 18 18 18 18 18 18 18 18 18 18 18 18 18 18 18 18 18 18 18 18 18 18
29 29 31 31 31 31 32 32 31 31 30 29 27 25 23 22 21 21 21 20 20 19 19 19 19 19 19 19 18 19 18 18 18 18 18 19 19 19 18 18 18 18 18 18 18 18 18 18 18
30 30 31 31 31 31 32 32 31 30 30 28 28 26 23 22 21 21 21 20 20 19 19 19 19 19 19 19 19 19 18 18 18 18 18 18 19 18 18 18 18 18 18 18 18 18 18 18 18
32 31 31 32 32 32 32 32 31 30 29 28 27 26 23 22 21 21 21 20 20 20 19 19 18 19 18 18 19 19 18 18 18 18 18 18 18 18 18 18 18 18 18 18 18 18 18 18 18
33 32 32 33 34 33 33 32 31 31 29 28 26 24 23 22 22 21 21 20 20 20 19 19 19 19 19 18 19 18 18 18 18 18 18 18 18 18 18 18 18 18 18 18 18 18 18 18 18
34 33 33 34 34 34 33 33 32 31 30 28 25 24 23 22 22 22 21 21 20 20 20 19 19 19 19 19 19 18 18 18 18 18 18 18 18 18 18 18 18 18 18 18 18 18 18 18 18
34 34 34 34 34 34 33 33 32 31 30 28 25 24 23 23 23 22 22 21 21 20 20 20 19 19 19 19 19 19 19 19 18 18 18 18 18 18 18 18 18 18 18 18 18 18 18 18 18
34 34 34 34 34 33 33 33 32 31 29 27 26 24 24 23 23 23 22 21 21 20 20 20 19 19 19 19 19 19 19 19 18 19 18 18 18 18 18 18 18 18 18 18 18 18 18 18 18
34 34 34 34 34 33 33 32 31 30 29 27 26 25 24 24 23 23 22 22 21 20 20 20 19 19 19 19 19 19 19 19 19 19 19 19 18 18 18 18 18 18 18 18 18 18 18 18 18
34 34 34 34 34 34 33 31 31 30 29 28 27 26 25 24 24 23 22 22 21 21 20 20 19 19 19 19 19 19 19 19 19 19 19 19 18 18 18 18 18 18 19 18 18 18 18 18 18
34 33 32 34 34 34 32 30 31 30 29 28 27 26 25 25 24 23 22 22 21 20 20 20 19 19 19 19 19 19 19 19 19 19 19 19 19 19 19 18 18 19 18 18 18 19 19 19 19
33 32 32 33 35 34 32 30 31 30 29 28 28 27 26 25 24 23 23 22 21 20 20 20 20 19 19 19 19 19 19 19 19 19 19 19 19 19 19 19 19 19 19 19 19 19 19 19 19
32 33 32 32 34 34 32 31 31 30 29 28 28 27 26 25 25 24 23 22 21 20 20 20 19 19 19 19 19 19 19 19 19 19 19 19 19 19 19 19 19 19 18 19 19 19 19 19 19
33 33 33 33 34 34 33 32 31 31 30 29 28 28 26 26 25 24 23 22 21 20 20 20 19 19 19 19 19 19 19 19 19 19 19 19 19 19 19 19 19 19 19 19 19 18 18 18 18
33 33 33 34 34 34 33 32 32 32 31 30 29 28 27 26 25 24 23 23 22 21 20 20 20 20 19 19 19 19 19 19 19 19 19 19 19 19 19 19 19 19 19 19 19 18 18 18 18
33 33 33 32 34 34 33 32 32 32 31 31 30 29 28 27 26 24 23 23 22 21 20 20 20 20 20 19 19 19 19 19 20 20 19 19 19 19 19 19 19 19 19 19 19 19 18 19 19
32 33 33 33 32 31 32 31 31 32 32 31 31 30 29 28 26 25 24 23 22 22 21 20 20 20 20 20 19 19 19 19 20 20 20 20 19 19 19 19 19 19 19 19 19 19 19 19 18
33 34 33 32 31 31 31 31 31 31 31 31 31 30 29 28 27 26 24 24 23 22 21 21 20 20 20 20 20 19 19 20 20 20 20 20 19 19 19 19 19 19 19 19 19 19 19 18 18
34 33 32 32 31 29 31 30 30 30 31 31 31 30 30 28 28 27 25 24 24 23 22 21 20 20 20 20 20 20 20 20 20 20 20 20 19 19 19 19 19 19 19 19 19 19 19 19 19
33 31 30 29 29 29 31 31 30 31 32 32 31 30 30 29 28 27 26 25 24 23 22 22 21 21 20 20 20 20 20 20 20 20 20 20 19 19 19 19 19 19 19 19 19 19 19 19 18
32 32 30 29 29 30 30 31 31 32 31 32 31 30 30 29 28 27 26 25 24 24 23 22 21 21 21 20 20 20 20 20 20 20 19 19 19 19 19 19 19 19 19 19 19 19 18 18 19
32 32 33 31 31 30 30 30 30 32 31 32 31 30 29 29 28 27 26 25 24 24 23 23 22 21 21 21 20 20 20 20 20 20 19 19 19 19 19 19 19 19 19 19 19 18 18 18 18
33 32 32 31 29 29 30 30 29 30 30 31 31 30 29 29 28 28 27 26 25 24 24 23 22 22 21 21 20 20 20 20 20 20 19 19 19 19 19 19 19 19 19 18 18 18 18 18 18
32 32 31 30 30 29 28 29 31 30 31 31 31 30 29 29 28 28 27 26 25 24 24 23 22 22 21 21 20 20 20 20 20 20 19 19 19 19 19 19 19 18 18 18 18 18 18 18 18
32 32 31 30 29 29 29 29 32 31 30 30 30 29 29 28 28 27 26 26 25 24 24 23 22 22 21 21 20 20 20 20 20 19 19 19 19 19 19 19 18 18 18 18 18 18 18 18 18
Wind_Speed
10 10 9 5 4 1 11 13 14 13 12 13 13 14 16 15 10 11 12 15 17 16 15 16 17 17 18 18 18 18 18 19 19 19 18 18 18 18 17 17 16 16 15 14 13 12 12 11 11
9 10 7 5 2 6 13 13 14 13 12 12 15 16 17 16 15 13 13 15 17 16 16 16 18 18 18 18 17 17 17 17 17 17 17 17 16 16 16 16 15 14 14 13 12 12 11 10 10
10 12 6 4 5 10 13 12 12 13 11 12 14 15 12 11 13 11 14 17 18 17 17 18 19 19 18 18 17 17 17 16 16 16 16 15 15 14 14 14 14 13 13 12 11 10 10 9 8
6 6 5 1 12 13 13 11 11 12 11 12 13 12 11 11 11 15 17 18 18 17 18 19 19 18 18 17 17 16 16 16 15 15 14 14 14 13 13 13 12 12 11 10 10 9 9 8 7
8 4 4 7 13 13 12 11 11 12 13 15 16 15 13 14 17 19 16 18 18 17 17 18 19 18 17 17 17 16 15 15 14 14 14 13 12 12 12 11 10 10 9 9 8 8 7 6 5
6 4 1 9 12 12 12 11 12 14 14 15 17 16 12 14 15 16 16 16 17 17 17 18 19 18 17 16 16 16 15 14 13 13 12 11 11 10 10 10 9 9 8 7 7 7 6 5 3
8 5 4 11 11 12 11 11 12 12 12 12 14 14 11 14 13 15 15 15 16 16 16 15 16 16 16 15 15 14 14 13 12 11 11 10 10 10 9 9 8 8 7 7 6 6 5 4 3
6 3 4 8 10 12 12 13 11 12 11 11 10 11 13 15 14 14 14 14 14 15 15 13 14 15 14 14 14 13 13 12 11 10 10 10 10 9 9 9 8 7 7 6 5 5 4 4 4
8 2 4 8 10 11 11 12 12 12 12 11 12 17 19 19 17 15 14 13 13 13 12 13 13 12 13 14 14 14 13 12 11 10 10 9 8 9 9 9 9 8 7 6 5 5 5 5 6
3 3 7 7 9 9 10 9 10 11 13 15 18 20 21 18 17 16 15 14 14 13 11 10 12 11 11 11 13 12 11 11 10 10 10 9 7 7 8 10 10 8 7 7 7 7 6 7 6
1 5 6 6 8 8 8 8 8 10 11 15 19 21 20 18 16 15 15 13 13 13 11 10 10 10 9 7 9 7 7 9 9 9 8 7 6 6 7 7 8 8 8 7 8 9 8 7 6
1 3 3 5 6 6 7 8 9 9 12 17 20 21 19 17 15 15 15 14 14 13 11 10 9 8 7 7 6 6 5 5 5 7 7 5 3 3 4 4 5 6 6 5 5 5 6 4 5
1 1 2 4 5 6 7 8 10 12 16 19 21 19 18 16 15 14 14 14 14 13 11 10 9 7 5 5 3 5 4 5 6 6 5 4 3 2 3 2 3 4 5 5 3 3 2 3 3
2 2 1 3 5 6 7 8 9 13 17 19 19 18 17 16 15 14 14 13 13 12 11 10 10 8 6 4 2 2 4 4 5 5 6 4 3 3 2 2 2 2 3 4 4 4 3 2 2
4 4 2 3 5 6 6 6 8 12 15 17 18 17 16 15 15 14 14 14 13 12 11 10 10 9 7 6 5 4 4 6 4 4 6 5 4 4 2 2 2 2 3 4 4 3 3 3 3
8 8 6 6 5 6 5 5 9 11 12 15 16 17 16 15 15 14 14 13 13 12 11 10 11 11 9 6 5 4 4 4 4 5 5 6 4 4 2 2 2 2 3 3 3 3 3 2 2
9 9 7 6 6 6 5 7 10 12 12 12 14 15 16 15 15 15 15 14 13 12 11 10 8 10 10 7 5 4 3 3 4 5 5 6 6 6 4 2 2 3 2 2 3 2 2 2 3
10 8 6 6 6 6 5 7 12 13 13 13 12 14 15 15 15 16 15 15 13 13 12 11 9 8 9 7 5 4 4 4 4 4 5 6 6 6 4 3 3 3 2 1 1 1 2 2 2
13 10 6 5 6 5 4 8 12 13 14 15 15 15 15 15 15 16 15 15 14 13 12 11 10 9 7 6 6 6 5 5 4 5 7 8 6 6 4 2 3 3 2 2 2 1 2 3 3
12 12 8 4 3 3 5 7 12 15 13 14 16 15 15 16 16 16 15 15 15 14 13 12 10 10 9 7 6 5 5 4 5 4 5 7 7 7 6 4 4 3 3 3 3 2 2 3 2
11 10 8 8 6 6 8 8 9 12 12 13 14 16 17 17 18 17 16 16 16 15 15 13 11 11 10 9 6 5 4 4 4 5 5 6 8 8 6 5 4 4 4 4 4 3 3 3 3
12 10 9 9 9 8 9 8 8 12 12 13 12 13 15 16 17 18 17 16 16 15 14 12 12 11 10 9 8 8 7 6 5 4 5 6 7 7 7 6 5 4 3 3 4 4 3 3 3
11 9 8 9 10 12 12 11 6 8 11 12 11 12 13 14 17 19 18 16 16 16 14 13 11 11 10 9 9 8 7 6 5 5 5 6 6 7 7 7 6 5 4 4 4 3 4 3 4
10 9 9 10 11 13 13 12 7 7 9 11 12 12 11 13 14 16 17 15 14 15 15 14 12 11 11 10 9 8 7 6 5 5 5 5 5 6 7 7 6 6 5 5 5 4 4 4 4
11 10 9 10 10 11 12 11 5 7 7 9 11 11 10 11 13 14 15 15 13 14 14 14 14 12 11 11 9 8 8 7 7 6 6 6 5 5 6 6 5 5 5 6 5 5 5 5 4
10 12 11 11 11 9 8 8 2 6 6 6 8 9 9 9 10 12 14 14 14 15 14 14 14 13 13 12 9 8 8 8 7 7 6 6 5 5 5 6 6 6 5 6 5 5 6 5 5
13 13 14 14 14 12 8 5 2 4 6 6 8 9 9 8 9 10 13 14 14 13 13 14 14 13 13 12 10 9 9 8 7 7 7 5 4 4 5 5 5 5 5 4 4 4 5 5 6
13 12 9 10 10 12 10 7 6 7 6 7 8 8 8 7 7 9 10 13 13 13 12 11 12 13 12 12 11 11 9 8 7 6 6 5 4 4 4 5 5 4 5 5 5 4 4 5 5
12 13 11 9 10 11 10 5 2 7 7 7 7 7 7 6 5 7 8 9 11 13 12 11 11 11 11 11 10 9 9 9 8 7 6 5 4 4 4 4 5 5 6 5 5 6 4 5 5
12 13 12 10 10 10 11 7 2 5 5 4 5 5 4 4 3 4 5 6 7 9 11 11 10 11 10 9 8 8 7 7 8 7 6 5 5 5 4 5 5 6 6 5 5 6 5 5 4
Wind_Direction
205 220 226 245 256 227 66 67 67 64 66 62 61 69 65 57 71 97 112 112 116 118 121 119 117 117 116 114 112 112 112 111 111 110 110 109 108 109 109 108 108 108 108 108 106 103 101 100 100
225 230 235 245 251 67 68 69 70 72 75 77 71 72 73 71 82 104 113 115 118 119 121 119 118 118 118 117 114 111 110 111 112 112 111 110 110 111 110 110 111 110 110 109 108 106 105 105 105
249 250 255 244 65 70 73 75 83 84 82 82 79 67 64 82 92 109 118 121 116 114 115 118 120 119 119 118 115 113 113 114 114 113 113 112 112 112 113 113 114 113 113 111 110 110 107 107 109
246 238 240 145 71 71 80 85 90 90 86 83 87 77 71 79 99 117 123 120 115 115 116 121 122 121 121 121 119 117 117 120 119 118 116 116 116 115 115 115 116 116 115 113 111 112 112 111 112
242 260 254 83 76 79 84 87 90 86 82 82 86 90 87 89 106 118 122 119 119 119 119 124 124 123 124 124 124 123 122 122 123 122 120 121 120 119 117 117 118 118 117 115 115 116 116 116 117
253 252 234 85 83 81 82 89 88 90 96 99 102 100 97 110 114 121 122 121 120 121 122 125 125 126 126 127 129 129 128 127 126 126 125 124 124 123 122 122 123 123 122 121 123 123 124 128 133
269 306 63 90 95 88 83 80 84 91 96 100 109 108 117 120 120 124 124 122 122 125 127 130 132 131 131 131 131 131 133 133 133 133 132 133 132 131 131 131 129 128 129 131 133 137 141 149 170
262 322 35 83 93 92 90 85 84 93 92 102 114 117 130 133 132 127 123 123 123 127 129 132 136 137 138 136 135 134 136 139 141 144 146 147 147 148 149 146 141 139 142 146 147 152 166 180 204
265 274 49 78 89 97 100 99 104 102 101 91 87 113 132 138 136 131 126 124 125 126 134 140 139 139 142 142 140 143 147 150 153 159 162 165 169 163 164 157 153 157 162 167 173 180 188 203 220
259 61 70 73 85 97 100 109 119 112 107 100 100 114 131 139 142 139 138 138 136 137 141 137 137 142 147 144 145 156 161 162 172 171 174 181 185 166 157 158 167 173 183 189 198 199 207 216 217
32 63 75 78 84 88 97 105 109 115 119 125 129 134 142 148 151 148 146 145 142 144 143 141 144 143 139 136 149 156 157 162 175 171 169 172 173 159 148 162 171 186 196 204 197 204 218 215 213
86 87 99 91 88 92 95 98 93 95 113 128 136 142 148 155 157 152 150 148 146 147 147 148 139 134 134 134 142 149 156 161 160 164 174 166 169 161 155 170 174 184 192 194 204 208 223 227 231
326 100 108 110 106 98 97 97 98 101 114 126 137 145 153 159 158 152 148 146 147 150 152 145 136 123 116 115 152 157 159 157 151 157 175 172 173 161 152 160 175 196 185 182 202 209 221 239 233
262 228 195 130 130 122 107 107 112 121 126 133 142 150 158 161 160 154 150 152 152 153 151 145 142 137 137 151 182 160 161 150 148 158 161 182 172 154 152 162 189 207 199 190 189 205 207 243 245
270 251 215 202 196 144 123 124 128 135 140 145 151 157 162 163 162 161 158 158 157 155 154 152 154 152 160 179 190 178 181 164 156 148 153 170 180 160 162 179 193 196 213 206 198 210 198 221 229
263 250 235 214 210 156 155 151 146 146 154 156 158 161 163 165 166 164 163 162 160 159 159 166 171 163 171 189 198 192 180 160 157 159 167 171 173 162 180 181 194 201 229 211 207 216 212 220 233
245 241 237 231 209 176 171 156 157 163 167 165 163 164 166 167 170 166 167 167 164 160 161 169 174 164 173 184 193 203 178 164 166 171 171 171 178 184 193 185 183 211 227 227 236 187 204 224 238
255 245 224 227 218 205 185 172 166 169 175 170 172 170 169 174 174 169 170 169 166 163 165 171 175 168 174 177 189 204 196 182 183 178 170 172 190 188 194 185 189 213 211 223 257 234 223 244 243
271 277 260 238 212 220 208 175 174 179 182 173 177 177 174 176 176 170 172 171 167 166 169 175 178 174 178 181 189 198 198 199 193 189 176 178 197 187 193 202 181 206 199 214 230 227 241 241 224
270 282 280 261 240 257 239 208 182 184 187 183 181 178 177 178 174 170 175 176 173 171 173 176 180 179 186 187 195 197 197 200 196 190 168 181 193 193 196 196 210 201 199 214 228 215 239 254 216
267 275 283 285 283 265 261 231 190 189 193 190 187 183 182 181 176 174 179 179 178 176 179 181 182 180 189 187 190 202 194 209 203 183 177 187 193 199 207 187 210 212 204 200 212 213 220 245 253
266 271 276 280 280 277 272 263 205 193 190 189 192 189 185 183 179 177 180 183 183 180 180 178 179 179 186 188 196 201 199 204 205 192 185 188 194 201 197 199 207 219 216 197 214 205 221 229 254
267 278 280 283 279 276 266 267 237 210 198 191 188 194 189 186 185 180 182 185 185 182 181 179 176 180 183 189 199 204 209 209 205 197 188 193 194 201 202 203 203 208 216 214 216 212 216 229 241
264 271 274 269 265 260 257 258 247 220 213 191 185 189 187 183 187 179 180 180 187 183 182 180 176 180 182 191 200 201 212 215 215 202 188 200 201 203 205 204 200 203 210 215 216 223 223 235 246
248 248 257 257 251 257 255 248 226 182 198 195 178 176 180 180 184 177 178 178 181 184 184 180 176 180 184 193 201 200 208 215 220 216 200 205 211 205 202 205 198 207 210 214 212 217 224 228 232
249 252 249 257 265 267 263 265 199 152 177 182 166 165 174 181 183 178 176 179 181 184 182 179 176 182 187 193 201 201 202 212 217 216 217 209 222 209 193 194 196 207 211 218 210 220 222 222 228
253 250 260 265 270 272 256 248 259 165 160 160 160 162 176 189 184 183 180 179 181 183 182 182 176 180 187 192 195 203 202 212 219 211 216 223 221 223 187 187 196 203 211 221 214 226 229 221 225
251 264 267 265 272 274 268 245 217 181 171 170 170 170 176 183 188 183 185 181 181 185 183 181 177 181 187 191 194 200 202 210 216 216 211 212 218 219 187 185 192 204 210 216 222 236 236 232 234
236 246 255 270 274 272 276 270 181 172 175 165 155 160 164 170 188 188 182 183 180 181 181 179 174 178 187 193 194 197 195 202 207 209 209 207 208 208 201 202 201 207 216 216 220 235 234 241 245
248 252 248 250 258 270 276 269 160 155 144 141 133 126 132 133 154 169 164 162 169 176 178 178 177 181 185 186 187 194 191 195 203 206 204 199 202 212 209 209 212 217 219 219 221 230 233 238 243
Height
1479 1479 1480 1483 1481 1477 1474 1467 1465 1467 1469 1472 1473 1475 1480 1484 1490 1503 1505 1504 1506 1507 1508 1510 1512 1514 1517 1519 1521 1523 1526 1528 1530 1532 1534 1536 1538 1540 1541 1543 1545 1546 1548 1549 1550 1551 1552 1553 1554
1479 1481 1484 1482 1480 1482 1477 1468 1469 1470 1473 1474 1476 1479 1484 1490 1495 1501 1503 1505 1507 1508 1510 1512 1514 1517 1519 1521 1524 1526 1528 1530 1533 1535 1537 1539 1541 1542 1544 1545 1547 1548 1550 1551 1552 1553 1554 1555 1555
1480 1482 1483 1476 1472 1477 1477 1469 1470 1471 1474 1476 1480 1485 1490 1495 1499 1502 1505 1507 1509 1511 1512 1514 1517 1519 1522 1524 1526 1528 1531 1533 1535 1537 1539 1541 1543 1545 1546 1548 1549 1550 1551 1552 1553 1555 1555 1556 1557
1482 1483 1479 1471 1472 1467 1467 1468 1469 1471 1475 1478 1482 1489 1496 1500 1502 1505 1507 1510 1511 1513 1515 1517 1519 1522 1524 1527 1529 1531 1533 1535 1537 1539 1542 1543 1545 1547 1548 1550 1551 1552 1553 1554 1555 1556 1557 1558 1559
1483 1480 1475 1470 1469 1466 1465 1467 1470 1473 1477 1481 1486 1494 1501 1504 1505 1507 1510 1512 1514 1516 1518 1520 1522 1525 1527 1529 1531 1534 1535 1537 1539 1542 1544 1545 1547 1548 1550 1551 1552 1553 1554 1555 1556 1557 1558 1559 1560
1481 1474 1476 1476 1471 1466 1466 1468 1471 1475 1479 1484 1490 1497 1504 1508 1508 1510 1512 1514 1516 1518 1520 1522 1525 1527 1529 1531 1534 1536 1538 1539 1541 1544 1545 1547 1549 1550 1552 1553 1554 1555 1556 1557 1558 1558 1559 1560 1561
1477 1471 1470 1470 1471 1470 1468 1469 1472 1476 1480 1484 1489 1497 1505 1509 1511 1512 1514 1517 1519 1521 1522 1524 1527 1529 1532 1534 1536 1538 1540 1542 1544 1546 1547 1549 1550 1552 1553 1554 1555 1556 1557 1558 1559 1560 1560 1561 1562
1472 1471 1469 1468 1471 1471 1469 1472 1476 1478 1482 1487 1489 1495 1505 1510 1512 1514 1516 1519 1521 1523 1525 1527 1529 1531 1533 1535 1537 1539 1541 1543 1545 1547 1549 1550 1552 1553 1555 1556 1557 1557 1558 1559 1560 1561 1561 1562 1563
1469 1472 1474 1468 1469 1469 1469 1473 1477 1480 1484 1487 1490 1495 1503 1509 1513 1516 1518 1521 1523 1525 1527 1529 1531 1533 1536 1538 1539 1541 1544 1545 1547 1549 1550 1552 1553 1554 1556 1557 1558 1559 1559 1560 1561 1562 1562 1563 1564
1465 1470 1470 1463 1463 1465 1468 1472 1476 1479 1484 1490 1496 1501 1506 1510 1513 1516 1519 1521 1524 1527 1529 1531 1533 1535 1538 1540 1541 1543 1545 1547 1549 1550 1552 1553 1555 1556 1557 1558 1559 1559 1560 1561 1562 1562 1563 1564 1564
1462 1465 1464 1463 1464 1466 1469 1471 1474 1478 1484 1491 1497 1502 1507 1511 1514 1517 1520 1522 1525 1527 1530 1532 1535 1537 1539 1541 1543 1545 1547 1548 1550 1552 1553 1555 1556 1557 1558 1559 1559 1560 1561 1561 1562 1563 1563 1564 1565
1462 1463 1463 1464 1466 1467 1469 1472 1475 1478 1485 1491 1497 1502 1506 1510 1513 1517 1520 1522 1525 1528 1531 1533 1536 1538 1540 1542 1544 1546 1548 1549 1551 1553 1554 1555 1557 1558 1559 1559 1560 1561 1561 1562 1562 1563 1564 1565 1565
1462 1463 1463 1464 1466 1468 1470 1473 1478 1482 1487 1492 1498 1503 1507 1510 1513 1517 1520 1523 1525 1528 1531 1533 1536 1538 1540 1542 1545 1547 1549 1550 1551 1553 1554 1556 1557 1558 1559 1560 1560 1561 1562 1562 1563 1563 1564 1564 1565
1464 1463 1463 1464 1466 1468 1471 1475 1479 1484 1488 1493 1498 1503 1507 1510 1513 1517 1520 1523 1525 1528 1531 1533 1535 1537 1540 1542 1544 1547 1549 1551 1552 1553 1554 1556 1557 1558 1559 1559 1560 1561 1562 1562 1562 1563 1563 1564 1565
1464 1464 1465 1465 1464 1466 1471 1478 1479 1485 1489 1493 1497 1502 1506 1510 1513 1516 1519 1522 1525 1528 1530 1533 1535 1537 1539 1542 1544 1547 1549 1551 1552 1553 1554 1555 1556 1557 1558 1559 1559 1560 1561 1561 1562 1562 1563 1563 1564
1465 1468 1473 1464 1462 1465 1473 1486 1480 1484 1488 1491 1495 1500 1504 1509 1512 1515 1518 1521 1524 1527 1529 1532 1535 1537 1539 1542 1544 1547 1549 1550 1551 1552 1553 1554 1555 1556 1557 1558 1559 1559 1560 1561 1561 1562 1562 1563 1563
1468 1475 1475 1467 1460 1462 1469 1480 1478 1483 1487 1490 1493 1498 1502 1507 1510 1514 1517 1520 1523 1525 1528 1531 1534 1536 1538 1541 1543 1546 1548 1549 1550 1551 1552 1553 1554 1555 1556 1557 1558 1558 1559 1560 1560 1560 1561 1561 1562
1474 1469 1470 1469 1460 1460 1467 1473 1475 1479 1484 1487 1491 1495 1500 1504 1508 1512 1515 1518 1521 1524 1526 1529 1532 1535 1537 1540 1542 1544 1546 1548 1549 1550 1551 1552 1553 1554 1555 1556 1556 1557 1558 1558 1559 1559 1559 1560 1560
1463 1464 1467 1463 1456 1460 1465 1470 1472 1476 1479 1483 1488 1492 1497 1501 1506 1509 1513 1516 1519 1522 1524 1527 1530 1532 1535 1538 1540 1542 1544 1546 1547 1549 1550 1551 1552 1553 1554 1555 1555 1556 1556 1557 1557 1558 1558 1559 1559
1462 1466 1465 1460 1454 1459 1464 1466 1466 1470 1475 1478 1483 1487 1492 1497 1502 1506 1510 1514 1517 1519 1521 1524 1527 1530 1533 1535 1538 1540 1542 1544 1546 1547 1548 1549 1550 1552 1553 1553 1554 1554 1555 1555 1556 1556 1557 1557 1558
1463 1466 1466 1466 1458 1457 1464 1468 1466 1467 1470 1475 1479 1483 1488 1492 1497 1502 1506 1510 1514 1516 1518 1521 1524 1527 1530 1533 1536 1539 1541 1542 1544 1545 1546 1547 1548 1550 1551 1551 1552 1553 1553 1554 1554 1554 1555 1556 1557
1468 1458 1460 1464 1469 1473 1471 1482 1468 1463 1466 1470 1474 1479 1483 1488 1493 1498 1502 1507 1510 1513 1516 1519 1522 1524 1527 1531 1533 1535 1537 1539 1541 1542 1544 1545 1546 1547 1549 1549 1550 1551 1552 1552 1552 1553 1553 1554 1555
1460 1456 1460 1463 1470 1476 1471 1479 1473 1463 1466 1466 1469 1475 1479 1484 1489 1493 1498 1502 1507 1510 1514 1516 1519 1521 1524 1527 1530 1533 1535 1537 1539 1540 1541 1543 1544 1545 1546 1547 1548 1548 1549 1550 1550 1551 1552 1552 1553
1455 1459 1462 1465 1471 1487 1474 1478 1479 1466 1462 1462 1466 1471 1475 1480 1484 1489 1494 1499 1503 1507 1511 1514 1516 1518 1521 1524 1527 1530 1532 1534 1536 1538 1539 1540 1541 1542 1543 1544 1545 1546 1546 1547 1548 1549 1549 1550 1551
1456 1469 1486 1491 1490 1486 1464 1468 1468 1456 1454 1457 1461 1467 1472 1477 1480 1485 1490 1495 1499 1503 1507 1510 1512 1515 1518 1521 1524 1526 1529 1531 1533 1535 1536 1537 1539 1539 1540 1541 1542 1543 1543 1544 1545 1546 1547 1547 1548
1458 1464 1485 1498 1494 1481 1468 1469 1459 1451 1454 1456 1460 1465 1470 1474 1478 1481 1486 1491 1495 1499 1503 1506 1508 1511 1514 1517 1520 1523 1525 1528 1530 1531 1533 1534 1536 1537 1538 1538 1539 1540 1541 1542 1542 1543 1544 1544 1545
1459 1460 1455 1467 1472 1479 1473 1465 1458 1451 1453 1455 1460 1464 1469 1472 1475 1479 1483 1487 1491 1495 1499 1502 1505 1507 1510 1513 1516 1519 1521 1524 1526 1528 1530 1531 1533 1534 1535 1535 1536 1537 1538 1539 1539 1540 1541 1542 1542
1451 1452 1459 1468 1484 1489 1475 1469 1467 1458 1456 1456 1458 1462 1467 1471 1474 1477 1480 1484 1488 1492 1495 1499 1501 1504 1507 1510 1513 1516 1518 1520 1523 1525 1526 1528 1529 1531 1532 1532 1533 1534 1535 1536 1537 1538 1538 1539 1539
1453 1456 1459 1463 1467 1482 1488 1477 1451 1454 1453 1454 1457 1461 1465 1468 1472 1474 1477 1481 1485 1488 1492 1496 1499 1501 1504 1507 1510 1513 1515 1517 1519 1520 1522 1524 1526 1527 1528 1529 1530 1531 1531 1532 1533 1534 1535 1535 1536
1446 1450 1455 1471 1473 1469 1476 1473 1447 1450 1453 1455 1457 1462 1465 1467 1470 1473 1476 1479 1483 1486 1489 1492 1495 1498 1500 1503 1506 1509 1511 1513 1515 1517 1518 1520 1522 1523 1525 1526 1527 1527 1528 1529 1529 1531 1532 1532 1532